TimeCST,TemperatureF,Dew PointF,Humidity,Sea Level PressureIn,VisibilityMPH,Wind Direction,Wind SpeedMPH,Gust SpeedMPH,PrecipitationIn,Events,Conditions,WindDirDegrees,DateUTC
12:15 AM,52.2,48.9,89,30.23,10.0,ESE,4.6,-,N/A,,Clear,110,2013-01-20 06:15:00
12:35 AM,52.7,49.6,89,30.23,10.0,ESE,3.5,-,N/A,,Clear,120,2013-01-20 06:35:00
12:55 AM,51.8,49.1,90,30.22,10.0,Calm,Calm,-,N/A,,Clear,0,2013-01-20 06:55:00
1:15 AM,52.5,50.4,92,30.22,10.0,Calm,Calm,-,N/A,,Clear,0,2013-01-20 07:15:00
1:35 AM,51.4,49.6,94,30.22,10.0,ESE,3.5,-,N/A,,Clear,120,2013-01-20 07:35:00
1:55 AM,52.7,50.9,94,30.21,10.0,ESE,3.5,-,N/A,,Clear,110,2013-01-20 07:55:00
2:15 AM,52.0,50.5,95,30.22,10.0,Calm,Calm,-,N/A,,Clear,0,2013-01-20 08:15:00
2:35 AM,50.9,49.5,95,30.20,1.5,Calm,Calm,-,N/A,,Mist,0,2013-01-20 08:35:00
2:55 AM,50.4,49.1,95,30.20,7.0,East,3.5,-,N/A,,Clear,100,2013-01-20 08:55:00
3:15 AM,49.3,47.8,95,30.20,0.2,Calm,Calm,-,N/A,Fog,Fog,0,2013-01-20 09:15:00
3:35 AM,48.0,46.4,94,30.20,7.0,NE,3.5,-,N/A,,Clear,50,2013-01-20 09:35:00
3:55 AM,47.5,45.7,93,30.20,10.0,NE,3.5,-,N/A,,Clear,40,2013-01-20 09:55:00
4:15 AM,46.4,44.4,93,30.19,7.0,NNE,3.5,-,N/A,,Clear,20,2013-01-20 10:15:00
4:35 AM,45.7,44.2,95,30.20,2.0,NNE,3.5,-,N/A,,Clear,30,2013-01-20 10:35:00
4:55 AM,45.7,44.4,95,30.20,3.0,Calm,Calm,-,N/A,,Clear,0,2013-01-20 10:55:00
5:15 AM,46.4,45.0,95,30.20,5.0,Calm,Calm,-,N/A,,Clear,0,2013-01-20 11:15:00
5:35 AM,45.7,43.9,93,30.20,4.0,NNE,3.5,-,N/A,,Clear,20,2013-01-20 11:35:00
5:55 AM,46.0,44.6,95,30.20,3.0,Calm,Calm,-,N/A,,Clear,0,2013-01-20 11:55:00
6:15 AM,47.1,45.7,95,30.21,4.0,Calm,Calm,-,N/A,,Clear,0,2013-01-20 12:15:00
6:35 AM,46.4,44.6,93,30.21,5.0,Calm,Calm,-,N/A,,Clear,0,2013-01-20 12:35:00
6:55 AM,46.8,45.0,93,30.21,4.0,Calm,Calm,-,N/A,,Clear,0,2013-01-20 12:55:00
7:15 AM,46.8,45.0,93,30.22,5.0,Calm,Calm,-,N/A,,Clear,0,2013-01-20 13:15:00
7:35 AM,46.9,45.1,93,30.23,4.0,Calm,Calm,-,N/A,,Clear,0,2013-01-20 13:35:00
7:55 AM,47.3,44.8,91,30.24,5.0,Calm,Calm,-,N/A,,Clear,0,2013-01-20 13:55:00
8:15 AM,49.3,47.1,92,30.24,5.0,Calm,Calm,-,N/A,,Clear,0,2013-01-20 14:15:00
8:35 AM,53.2,50.2,89,30.25,7.0,Calm,Calm,-,N/A,,Clear,0,2013-01-20 14:35:00
8:55 AM,56.8,52.3,85,30.25,10.0,Calm,Calm,-,N/A,,Clear,0,2013-01-20 14:55:00
9:15 AM,60.3,54.3,81,30.25,10.0,Calm,Calm,-,N/A,,Clear,0,2013-01-20 15:15:00
9:35 AM,62.4,54.9,76,30.26,10.0,Calm,Calm,-,N/A,,Clear,0,2013-01-20 15:35:00
9:55 AM,64.6,55.0,71,30.26,10.0,ESE,3.5,-,N/A,,Clear,110,2013-01-20 15:55:00
10:15 AM,66.9,54.5,64,30.26,10.0,ESE,4.6,-,N/A,,Clear,120,2013-01-20 16:15:00
10:35 AM,68.9,53.2,57,30.26,10.0,SSE,5.8,-,N/A,,Clear,150,2013-01-20 16:35:00
10:55 AM,70.0,53.2,55,30.25,10.0,SE,6.9,-,N/A,,Clear,130,2013-01-20 16:55:00
11:15 AM,71.4,54.0,54,30.25,10.0,SSE,5.8,-,N/A,,Clear,160,2013-01-20 17:15:00
11:35 AM,71.8,54.0,53,30.24,10.0,SSW,9.2,-,N/A,,Clear,200,2013-01-20 17:35:00
11:55 AM,72.7,51.8,48,30.23,10.0,SW,5.8,-,N/A,,Scattered Clouds,230,2013-01-20 17:55:00
12:15 PM,73.0,51.3,46,30.20,10.0,SE,3.5,-,N/A,,Scattered Clouds,130,2013-01-20 18:15:00
12:35 PM,73.4,50.2,44,30.19,10.0,Calm,Calm,-,N/A,,Scattered Clouds,0,2013-01-20 18:35:00
12:55 PM,74.1,49.6,42,30.17,10.0,SSE,6.9,-,N/A,,Mostly Cloudy,160,2013-01-20 18:55:00
1:15 PM,75.0,49.6,41,30.15,10.0,South,6.9,-,N/A,,Scattered Clouds,170,2013-01-20 19:15:00
1:35 PM,74.5,49.1,41,30.14,10.0,East,4.6,-,N/A,,Scattered Clouds,90,2013-01-20 19:35:00
1:55 PM,75.7,48.6,38,30.13,10.0,South,4.6,-,N/A,,Scattered Clouds,180,2013-01-20 19:55:00
2:15 PM,75.6,48.4,38,30.12,10.0,East,3.5,-,N/A,,Scattered Clouds,80,2013-01-20 20:15:00
2:35 PM,75.7,47.7,37,30.11,10.0,Calm,Calm,-,N/A,,Scattered Clouds,0,2013-01-20 20:35:00
2:55 PM,76.5,48.2,37,30.11,10.0,SE,5.8,-,N/A,,Scattered Clouds,130,2013-01-20 20:55:00
3:15 PM,74.8,52.7,46,30.11,10.0,ENE,8.1,-,N/A,,Scattered Clouds,70,2013-01-20 21:15:00
3:35 PM,74.5,51.8,45,30.10,10.0,East,11.5,-,N/A,,Scattered Clouds,100,2013-01-20 21:35:00
3:55 PM,74.8,52.2,45,30.10,10.0,East,12.7,16.1,N/A,,Mostly Cloudy,100,2013-01-20 21:55:00
4:15 PM,73.4,51.4,46,30.10,10.0,East,17.3,24.2,N/A,,Mostly Cloudy,90,2013-01-20 22:15:00
4:35 PM,73.6,51.6,46,30.10,10.0,East,11.5,-,N/A,,Scattered Clouds,100,2013-01-20 22:35:00
4:55 PM,72.5,51.3,47,30.11,10.0,East,13.8,18.4,N/A,,Clear,100,2013-01-20 22:55:00
5:15 PM,71.2,50.9,49,30.11,10.0,ESE,13.8,-,N/A,,Clear,110,2013-01-20 23:15:00
5:35 PM,69.6,53.1,56,30.11,10.0,ESE,13.8,-,N/A,,Clear,120,2013-01-20 23:35:00
5:55 PM,68.0,53.8,60,30.12,10.0,ESE,12.7,-,N/A,,Clear,120,2013-01-20 23:55:00
6:15 PM,66.6,53.2,62,30.12,10.0,ESE,12.7,-,N/A,,Clear,120,2013-01-21 00:15:00
6:35 PM,65.5,53.6,65,30.12,10.0,ESE,9.2,-,N/A,,Clear,120,2013-01-21 00:35:00
6:55 PM,64.4,53.8,68,30.13,10.0,ESE,8.1,-,N/A,,Clear,120,2013-01-21 00:55:00
7:15 PM,63.5,54.0,71,30.13,10.0,ESE,9.2,-,N/A,,Clear,120,2013-01-21 01:15:00
7:35 PM,62.6,53.8,73,30.13,10.0,ESE,9.2,-,N/A,,Clear,110,2013-01-21 01:35:00
7:55 PM,62.1,53.6,74,30.13,10.0,ESE,8.1,-,N/A,,Clear,110,2013-01-21 01:55:00
8:15 PM,61.2,53.4,76,30.14,10.0,ESE,6.9,-,N/A,,Clear,110,2013-01-21 02:15:00
8:35 PM,60.4,53.2,77,30.14,10.0,ESE,8.1,-,N/A,,Clear,110,2013-01-21 02:35:00
8:55 PM,60.3,53.2,78,30.14,10.0,ESE,6.9,-,N/A,,Clear,120,2013-01-21 02:55:00
9:15 PM,59.4,52.9,79,30.14,10.0,ESE,5.8,-,N/A,,Clear,120,2013-01-21 03:15:00
9:35 PM,59.0,52.9,80,30.15,10.0,SE,6.9,-,N/A,,Clear,130,2013-01-21 03:35:00
9:55 PM,58.5,52.3,80,30.15,10.0,ESE,5.8,-,N/A,,Clear,120,2013-01-21 03:55:00
10:15 PM,57.6,52.0,82,30.15,10.0,SE,4.6,-,N/A,,Clear,130,2013-01-21 04:15:00
10:35 PM,57.2,51.8,82,30.15,10.0,SE,4.6,-,N/A,,Clear,130,2013-01-21 04:35:00
10:55 PM,57.0,51.8,83,30.15,10.0,SE,3.5,-,N/A,,Clear,140,2013-01-21 04:55:00
11:15 PM,56.3,51.8,85,30.15,10.0,SE,3.5,-,N/A,,Clear,140,2013-01-21 05:15:00
11:35 PM,55.9,51.3,84,30.15,10.0,SSE,3.5,-,N/A,,Clear,160,2013-01-21 05:35:00
11:55 PM,55.4,50.5,84,30.15,10.0,SSE,4.6,-,N/A,,Clear,160,2013-01-21 05:55:00